Thermopolis, WY

9:41 PM MDT on July 21, 2017 (GMT -0600)
Thermopolis

Weather History for KTBX - September, 2012

Change the Weather History Date:

Thursday, September 6, 2012

  Actual Average (KWRL) Record (KWRL)
Temperature  
Mean Temperature 53 °F -  
Max Temperature 62 °F 82 °F 100 °F (1978)
Min Temperature 44 °F 49 °F 39 °F (1969)
Degree Days  
Heating Degree Days 12    
Growing Degree Days 3 (Base 50)    
Moisture  
Dew Point 27 °F    
Average Humidity 38    
Maximum Humidity 87    
Minimum Humidity 13    
Precipitation  
Precipitation 0.00 in - - ()
Sea Level Pressure  
Sea Level Pressure 30.26 in    
Wind  
Wind Speed 12 mph ()    
Max Wind Speed 31 mph    
Max Gust Speed 34 mph    
Visibility 9.9 miles    
Events Rain    
Averages and records for this station are not official NWS values.
T = Trace of Precipitation, MM = Missing Value Source: Averaged Metar Reports

Daily Weather History Graph

Daily Weather History Graph

Search for Another Location

Airport or City:

Trip Planner

Search our weather history database for the weather conditions in past years. The results will help you decide how hot, cold, wet, or windy it might be!

Date:

Astronomy

Sep. 06, 2012 Rise Set
Actual Time 6:43 AM MDT 7:38 PM MDT
Civil Twilight 6:13 AM MDT 8:07 PM MDT
Nautical Twilight 5:39 AM MDT 8:41 PM MDT
Astronomical Twilight 5:02 AM MDT 9:18 PM MDT
Moon 10:38 PM MDT (9/6) 12:57 PM MDT (9/6)
Length of Visible Light 13h 53m
Length of Day
12h 55m
Waning Gibbous, 67% of the Moon is Illuminated
Sep 6
Waning Gibbous
Sep 8
Last Quarter
Sep 15
New
Sep 22
First Quarter
Sep 29
Full

Hourly Weather History & Observations

Time (MDT) Temp. Windchill Dew Point Humidity Pressure Visibility Wind Dir Wind Speed Gust Speed Precip Events Conditions
12:15 AM 60.8 °F - 15.8 °F 17% 30.24 in 10.0 mi WNW 13.8 mph - N/A   Clear
1:15 AM 62.6 °F - 14.0 °F 15% 30.23 in 10.0 mi NNW 8.1 mph - N/A   Clear
1:35 AM 60.8 °F - 15.8 °F 17% 30.23 in 10.0 mi North 8.1 mph - N/A   Clear
1:55 AM 62.6 °F - 15.8 °F 16% 30.23 in 10.0 mi NE 3.5 mph - N/A   Clear
2:35 AM 62.6 °F - 10.4 °F 13% 30.23 in 10.0 mi South 10.4 mph - N/A   Clear
3:15 AM 60.8 °F - 12.2 °F 15% 30.22 in 10.0 mi SSE 6.9 mph - N/A   Clear
3:35 AM 55.4 °F - 19.4 °F 25% 30.21 in 10.0 mi ESE 12.7 mph - N/A   Clear
3:55 AM 55.4 °F - 17.6 °F 23% 30.21 in 10.0 mi ESE 11.5 mph - N/A   Clear
4:15 AM 55.4 °F - 17.6 °F 23% 30.21 in 10.0 mi SE 13.8 mph - N/A   Clear
4:35 AM 57.2 °F - 15.8 °F 20% 30.22 in 10.0 mi SSE 10.4 mph - N/A   Clear
4:55 AM 57.2 °F - 14.0 °F 18% 30.22 in 10.0 mi SSE 9.2 mph - N/A   Clear
5:15 AM 59.0 °F - 14.0 °F 17% 30.22 in 10.0 mi SSE 10.4 mph - N/A   Clear
5:35 AM 59.0 °F - 14.0 °F 17% 30.22 in 10.0 mi South 11.5 mph - N/A   Clear
5:55 AM 59.0 °F - 17.6 °F 20% 30.22 in 10.0 mi South 10.4 mph - N/A   Clear
6:15 AM 51.8 °F - 17.6 °F 26% 30.23 in 10.0 mi NNW 8.1 mph - N/A   Clear
6:35 AM 50.0 °F - 19.4 °F 30% 30.24 in 10.0 mi NW 8.1 mph - N/A   Clear
6:55 AM 50.0 °F - 19.4 °F 30% 30.24 in 10.0 mi NNW 12.7 mph - N/A   Scattered Clouds
7:15 AM 50.0 °F - 21.2 °F 32% 30.24 in 10.0 mi NNW 13.8 mph - N/A   Clear
7:35 AM 48.2 °F - 23.0 °F 37% 30.26 in 10.0 mi NW 11.5 mph - N/A   Clear
7:55 AM 48.2 °F - 21.2 °F 34% 30.26 in 10.0 mi NW 11.5 mph - N/A   Clear
8:15 AM 50.0 °F - 24.8 °F 37% 30.25 in 10.0 mi NW 11.5 mph - N/A   Clear
8:35 AM 50.0 °F - 28.4 °F 43% 30.25 in 10.0 mi NW 10.4 mph - N/A   Clear
8:55 AM 50.0 °F - 28.4 °F 43% 30.25 in 10.0 mi NW 13.8 mph - N/A   Clear
9:15 AM 50.0 °F - 28.4 °F 43% 30.25 in 10.0 mi NW 13.8 mph - N/A   Clear
9:35 AM 51.8 °F - 28.4 °F 41% 30.26 in 10.0 mi NW 16.1 mph - N/A   Clear
9:55 AM 53.6 °F - 28.4 °F 38% 30.26 in 10.0 mi NW 18.4 mph - N/A   Clear
10:15 AM 53.6 °F - 28.4 °F 38% 30.26 in 10.0 mi NW 12.7 mph - N/A   Clear
10:35 AM 55.4 °F - 26.6 °F 33% 30.26 in 10.0 mi NNW 12.7 mph - N/A   Clear
10:55 AM 57.2 °F - 26.6 °F 31% 30.26 in 10.0 mi North 6.9 mph - N/A   Clear
11:15 AM 59.0 °F - 26.6 °F 29% 30.26 in 10.0 mi NNW 11.5 mph - N/A   Clear
11:35 AM 59.0 °F - 26.6 °F 29% 30.26 in 10.0 mi NNW 11.5 mph - N/A   Clear
11:55 AM 59.0 °F - 26.6 °F 29% 30.25 in 10.0 mi NNW 11.5 mph - N/A   Clear
12:15 PM 60.8 °F - 26.6 °F 27% 30.24 in 10.0 mi NNW 13.8 mph - N/A   Clear
12:35 PM 59.0 °F - 26.6 °F 29% 30.24 in 10.0 mi NNW 15.0 mph 19.6 mph N/A   Clear
1:15 PM 60.8 °F - 26.6 °F 27% 30.24 in 10.0 mi NNW 15.0 mph 19.6 mph N/A   Scattered Clouds
1:35 PM 62.6 °F - 26.6 °F 26% 30.24 in 10.0 mi North 13.8 mph - N/A   Clear
1:55 PM 62.6 °F - 26.6 °F 26% 30.24 in 10.0 mi NW 16.1 mph 23.0 mph N/A   Clear
2:15 PM 62.6 °F - 26.6 °F 26% 30.24 in 10.0 mi NW 21.9 mph 27.6 mph N/A   Mostly Cloudy
2:35 PM 62.6 °F - 26.6 °F 26% 30.24 in 10.0 mi NNW 20.7 mph 29.9 mph N/A   Scattered Clouds
2:55 PM 62.6 °F - 26.6 °F 26% 30.24 in 10.0 mi NNW 18.4 mph - N/A   Clear
3:15 PM 62.6 °F - 26.6 °F 26% 30.24 in 10.0 mi NNW 17.3 mph - N/A   Scattered Clouds
3:35 PM 60.8 °F - 28.4 °F 29% 30.24 in 10.0 mi NNW 20.7 mph 26.5 mph N/A   Scattered Clouds
3:55 PM 62.6 °F - 28.4 °F 27% 30.24 in 10.0 mi NW 26.5 mph 29.9 mph N/A   Clear
4:15 PM 60.8 °F - 28.4 °F 29% 30.26 in 10.0 mi NW 24.2 mph - N/A   Clear
4:35 PM 59.0 °F - 30.2 °F 34% 30.26 in 10.0 mi NNW 26.5 mph - N/A   Clear
4:55 PM 57.2 °F - 30.2 °F 36% 30.26 in 10.0 mi NNW 25.3 mph - N/A   Mostly Cloudy
5:15 PM 55.4 °F - 30.2 °F 38% 30.27 in 10.0 mi NNW 28.8 mph - N/A   Overcast
5:35 PM 55.4 °F - 30.2 °F 38% 30.28 in 10.0 mi NNW 31.1 mph 34.5 mph N/A   Overcast
5:55 PM 55.4 °F - 32.0 °F 41% 30.29 in 10.0 mi NNW 24.2 mph - N/A   Overcast
6:15 PM 55.4 °F - 32.0 °F 41% 30.29 in 10.0 mi NNW 25.3 mph - N/A   Overcast
6:35 PM 53.6 °F - 32.0 °F 44% 30.30 in 10.0 mi NNW 26.5 mph 32.2 mph N/A   Overcast
7:15 PM 50.0 °F - 39.2 °F 66% 30.32 in 10.0 mi North 18.4 mph 28.8 mph N/A Rain Rain
7:35 PM 48.2 °F - 41.0 °F 76% 30.32 in 10.0 mi NW 17.3 mph - N/A Rain Light Rain
7:55 PM 48.2 °F - 41.0 °F 76% 30.33 in 10.0 mi NW 19.6 mph - N/A Rain Rain
8:15 PM 46.4 °F 40.4 °F 42.8 °F 87% 30.34 in 5.0 mi NW 13.8 mph 17.3 mph N/A Rain Light Rain
8:35 PM 50.0 °F - 41.0 °F 71% 30.34 in 10.0 mi West 5.8 mph - N/A   Drizzle
8:55 PM 50.0 °F - 39.2 °F 66% 30.35 in 10.0 mi WNW 4.6 mph - N/A   Drizzle
9:15 PM 48.2 °F - 41.0 °F 76% 30.34 in 10.0 mi NNW 10.4 mph 16.1 mph N/A   Light Drizzle
9:35 PM 46.4 °F 40.7 °F 41.0 °F 81% 30.35 in 10.0 mi WNW 12.7 mph - N/A   Scattered Clouds
10:15 PM 46.4 °F 40.1 °F 41.0 °F 81% 30.36 in 10.0 mi NW 15.0 mph - N/A   Clear
10:55 PM 46.4 °F 39.2 °F 41.0 °F 81% 30.37 in 10.0 mi NW 18.4 mph - N/A   Scattered Clouds
11:15 PM 44.6 °F 36.4 °F 39.2 °F 81% 30.38 in 10.0 mi NW 20.7 mph - N/A   Mostly Cloudy
11:35 PM 44.6 °F 36.9 °F 37.4 °F 76% 30.38 in 10.0 mi NW 18.4 mph - N/A   Scattered Clouds